Weather in Falevo

Russia / Tver Oblast     57°16′19″N   37°50′44″E
temp.,
°C
wind,
m/s
gust,
m/s
humid.,
%
clouds,
%
prec.,
mm/h
press.,
hPa
HPBL,
m
24 july, sat
sat2400:00+13nw4863100 0.0 1009209
03:00+11nw3676100 0.0 1010136
06:00+11nnw3781100 0.0 1011236
09:00+13nnw346797 0.0 1013402
12:00+18nw444617 0.0 10141577
15:00+18n4444100 0.0 10141484
18:00+18wnw234079 0.0 1016948
21:00+15sw355533 0.0 1016101
25 july, sun
sun2500:00+10wsw347358 0.0 101848
03:00+13wsw256684 0.0 1019105
06:00+14wsw2360100 0.0 102086
09:00+17wsw334996 0.0 1020317
12:00+21w23339 0.0 10212303
15:00+24wnw332843 0.0 10202711
18:00+22nw443326 0.0 10201875
21:00+18wsw224798 0.0 102127
26 july, mon
mon2600:00+17wsw2254100 0.0 102235
03:00+16sw3459100 0.0 102392
06:00+17sw356189 0.0 1023158
09:00+20w2254100 0.0 1023311
12:00+25wsw34348 0.0 10232147
15:00+25w553533 0.0 10222187
18:00+25wsw56415 0.0 10211015
21:00+20wsw35576 0.0 102278
27 july, tue
tue2700:00+16wsw33715 0.0 102234
03:00+15w33795 0.0 102340
06:00+17w24745 0.0 1023122
09:00+24w33465 0.0 1022539
12:00+28w433232 0.0 10212755
15:00+27w443218 0.0 10202160
18:00+26sw113833 0.0 1019319
21:00+20sw226036 0.0 101917
28 july, wed
wed2800:00+17wsw33785 0.0 102029
03:00+15wsw33844 0.0 101931
06:00+18sw35815 0.2 1018129
09:00+24sw46565 0.4 1016557
12:00+29wsw563525 0.0 10142726
15:00+29wsw5731100 0.0 10122688
18:00+28wsw573886 0.0 10111611
21:00+23sw4956100 0.0 1010269